カタログに戻る

STARLINK-37292

運用中通信SSO
NORAD 68787·PAYLOAD·🇺🇸 United States

打ち上げ Apr 19, 2026 から Vandenberg Space Force Base

Loading…

次のパス (今後24時間)

TLE

最新Source: CelesTrak SupGP

元期: Sep 14, 2026, 22:41 UTC

1 68787C 26086X   26257.94562500  .00028976  00000+0  89961-3 0  2575
2 68787  97.2847 293.5301 0001031  90.1177  94.9039 15.33421086    16

AllMySatでSTARLINK-37292をリアルタイム追跡

Download on the App Store